ASIASAT 6

Last updated on Thu Nov 21 2024 00:02:42 GMT+0000 (Coordinated Universal Time)

1 40141U 14052A 24325.56749765 -.00000361 00000+0 00000+0 0 9996 2 40141 0.0227 266.9011 0001127 4.7808 112.6056 1.00271627 37317
UTC large
Height (km)
Speed (km/s)
/
Latitude / Longitude
Inclination (degrees)
Orbital Period (minutes)
Azimuth
Elevation
Range (km)
Doppler Factor

Next 0 passes for location: London (51.5072 / 0.1276)

Sorry there are no passes over London.